Weather History for PAEI - October, 2011

Change the Weather History Date:

Saturday, October 22, 2011

  Actual Average Record
Temperature  
Mean Temperature 12 °F -  
Max Temperature 24 °F 25 °F 51 °F (1957)
Min Temperature 2 °F 12 °F -13 °F (1988)
Degree Days  
Heating Degree Days 52    
Moisture  
Dew Point 9 °F    
Average Humidity 85    
Maximum Humidity 91    
Minimum Humidity 77    
Precipitation  
Precipitation 0.00 in - - ()
Sea Level Pressure  
Sea Level Pressure 29.52 in    
Wind  
Wind Speed 1 mph (North)    
Max Wind Speed 4 mph    
Max Gust Speed -    
Visibility 10 miles    
Events      
Averages and records for this station are not official NWS values.
T = Trace of Precipitation, MM = Missing Value Source: NWS Daily Summary

Daily Weather History Graph

Daily Weather History Graph

Search for Another Location

Airport or City:

Trip Planner

Search our weather history database for the weather conditions in past years. The results will help you decide how hot, cold, wet, or windy it might be!

Date:

Astronomy

Oct. 22, 2011 Rise Set
Actual Time 9:02 AM AKDT 6:02 PM AKDT
Civil Twilight 8:10 AM AKDT 6:53 PM AKDT
Nautical Twilight 7:14 AM AKDT 7:49 PM AKDT
Astronomical Twilight 6:17 AM AKDT 8:46 PM AKDT
Moon 2:32 AM AKDT (10/22) 4:45 PM AKDT (10/22)
Length of Visible Light 10h 42m
Length of Day
9h 00m
Waning Crescent, 22% of the Moon is Illuminated
Oct 22
Waning Crescent
Oct 26
New
Nov 2
First Quarter
Nov 10
Full
Nov 18
Last Quarter

Hourly Weather History & Observations

Time (AKDT) Temp. Windchill Dew Point Humidity Pressure Visibility Wind Dir Wind Speed Gust Speed Precip Events Conditions
12:55 AM 15.8 °F - 12.2 °F 86% 29.40 in 7.0 mi Variable 1.2 mph - N/A   Clear
1:55 AM 15.8 °F 10.2 °F 10.4 °F 79% 29.48 in 7.0 mi Variable 3.5 mph - N/A   Partly Cloudy
3:55 AM 6.3 °F - 2.5 °F 84% 29.44 in 10.0 mi Calm Calm - N/A   Clear
4:55 AM 5.7 °F - 1.9 °F 84% 29.44 in 10.0 mi Calm Calm - N/A   Clear
5:55 AM 6.4 °F - 2.8 °F 85% 29.45 in 10.0 mi Calm Calm - N/A   Clear
6:55 AM 4.1 °F - -0.0 °F 83% 29.47 in 10.0 mi Calm Calm - N/A   Clear
7:55 AM 2.8 °F - -1.3 °F 83% 29.49 in 10.0 mi Calm Calm - N/A   Clear
8:55 AM 3.0 °F - -0.9 °F 84% 29.49 in 10.0 mi Calm Calm - N/A   Clear
9:55 AM 5.7 °F - 2.3 °F 86% 29.51 in 10.0 mi Calm Calm - N/A   Clear
10:55 AM 10.0 °F - 6.8 °F 87% 29.48 in 10.0 mi Calm Calm - N/A   Clear
11:55 AM 13.6 °F - 10.2 °F 86% 29.49 in 10.0 mi Calm Calm - N/A   Clear
12:55 PM 17.2 °F - 14.5 °F 89% 29.49 in 10.0 mi Calm Calm - N/A   Clear
1:55 PM 21.2 °F - 16.7 °F 83% 29.49 in 10.0 mi Calm Calm - N/A   Clear
2:55 PM 23.5 °F - 18.1 °F 80% 29.54 in 10.0 mi Calm Calm - N/A   Clear
3:55 PM 23.5 °F - 18.0 °F 79% 29.54 in 10.0 mi Calm Calm - N/A   Clear
4:55 PM 23.7 °F - 17.6 °F 77% 29.55 in 10.0 mi Calm Calm - N/A   Clear
5:55 PM 19.8 °F - 17.1 °F 89% 29.56 in 10.0 mi Calm Calm - N/A   Clear
6:55 PM 16.3 °F - 14.2 °F 91% 29.57 in 10.0 mi Calm Calm - N/A   Partly Cloudy
7:55 PM 13.5 °F - 10.4 °F 88% 29.59 in 10.0 mi Calm Calm - N/A   Clear
8:55 PM 11.7 °F - 8.8 °F 88% 29.61 in 10.0 mi Calm Calm - N/A   Scattered Clouds
9:55 PM 11.1 °F - 7.5 °F 85% 29.62 in 10.0 mi Calm Calm - N/A   Scattered Clouds
10:55 PM 8.8 °F - 5.2 °F 85% 29.63 in 10.0 mi Calm Calm - N/A   Clear
11:55 PM 8.1 °F - 4.3 °F 85% 29.64 in 10.0 mi Calm Calm - N/A   Scattered Clouds